Location: Wildlife_Club
(35.6000°N, 81.4330°W)
Time: 04:41:15
(UTC-04:00)

A-11 Canister half - Pass Details

Date: 22 August 2020
Orbit: 1514 x 1686 km, 47.2° (Epoch: 23 September)

Event Time Altitude Azimuth Distance (km) Brightness Sun altitude
Rises 00:55:19 0° 289° (WNW) 4,874 11.9 -42.1°
Reaches altitude 10° 01:00:07 10° 270° (W) 3,910 11.2 -42.3°
Enters shadow 01:01:52 13° 260° (W) 3,673 10.9 -42.4°
